Flag for Italy Weather past 2 weeks in Bologna, Italy

Now
68 °F

Passing clouds.


Feels Like: 68 °F
Forecast: 60 / 77 °F
Wind: 10 mph from Southwest

Location: Bologna / Borgo Panigale

Current Time: May 31, 2015 at 1:34:22 AM

Latest Report: May 31, 2015 at 12:50 AM


Visibility: N/A

Pressure: 29.98 "Hg

Humidity: 56%

Dew point: 52 °F

Location of BolognaLocation

Historic Weather in Bologna — Graph

°F

Bologna temperature yesterday

Maximum temperature yesterday: 81 °F (at 4:50 PM)
Minimum temperature yesterday: 55 °F (at 3:20 AM)
Average temperature yesterday: 68 °F

Past Weeks' High & Low Weather Summary

 TemperatureHumidityPressure
High82 °F (May 19, 2:50 PM)100% (May 16, 7:50 AM)30.12 "Hg (May 16, 7:50 AM)
Low48 °F (May 21, 3:50 AM)30% (May 19, 3:20 PM)29.68 "Hg (May 19, 6:20 PM)
Average64 °F72%29.93 "Hg
* Reported May 16 12:20 AM — May 31 12:20 AM, Bologna, Weather by CustomWeather, © 2015

Note: Actual official high and low records may vary slightly from our data, if they occured in-between our weather recording intervals... More about our weather records

Advertising

Bologna weather history for previous 24 hours

 ConditionsComfort  
Time TempWeatherWind HumidityBarometerVisibility
12:20 AM
Sun, May 31
68 °FPassing clouds.10 mph56%29.98 "HgN/A
11:20 PM
Sat, May 30
68 °FPassing clouds.10 mph56%29.95 "HgN/A
10:50 PM70 °FClear.10 mph57%29.95 "Hg10 mi
10:20 PM70 °FClear.9 mph57%29.95 "Hg10 mi
9:50 PM70 °FClear.10 mph57%29.95 "Hg10 mi
9:20 PM72 °FSunny.10 mph53%29.95 "Hg10 mi
8:50 PM73 °FSunny.10 mph50%29.92 "Hg10 mi
8:20 PM75 °FSunny.10 mph50%29.92 "Hg10 mi
7:50 PM75 °FSunny.9 mph50%29.92 "Hg10 mi
7:20 PM77 °FPassing clouds.8 mph51%29.92 "HgN/A
6:50 PM77 °FPassing clouds.6 mph54%29.92 "HgN/A
6:20 PM79 °FPassing clouds.6 mph51%29.92 "HgN/A
5:50 PM77 °FPassing clouds.7 mph51%29.92 "HgN/A
5:20 PM79 °FPassing clouds.7 mph48%29.92 "HgN/A
4:50 PM81 °FPassing clouds.5 mph45%29.92 "HgN/A
4:20 PM79 °FPassing clouds.5 mph45%29.95 "HgN/A
3:50 PM77 °FPassing clouds.7 mph54%29.95 "HgN/A
3:20 PM79 °FPassing clouds.3 mph51%29.95 "HgN/A
2:50 PM77 °FPassing clouds.5 mph47%29.95 "HgN/A
1:50 PM75 °FPassing clouds.5 mph54%29.95 "HgN/A
12:50 PM73 °FPassing clouds.7 mph57%29.98 "HgN/A
12:20 PM73 °FPassing clouds.7 mph61%29.98 "HgN/A
11:50 AM73 °FPassing clouds.6 mph61%29.98 "HgN/A
11:20 AM72 °FPassing clouds.8 mph61%29.98 "HgN/A
10:50 AM72 °FPassing clouds.8 mph61%29.98 "HgN/A
10:20 AM70 °FPassing clouds.9 mph57%29.98 "HgN/A
9:50 AM70 °FPassing clouds.8 mph57%29.98 "HgN/A
9:20 AM68 °FPassing clouds.8 mph60%29.95 "HgN/A
8:50 AM68 °FPassing clouds.8 mph60%29.95 "HgN/A
8:20 AM64 °FSunny.7 mph68%29.95 "Hg10 mi
7:50 AM63 °FSunny.6 mph68%29.95 "Hg10 mi
7:20 AM59 °FPassing clouds.5 mph72%29.95 "HgN/A
6:50 AM59 °FPassing clouds.7 mph68%29.95 "HgN/A
6:20 AM55 °FClear.5 mph77%29.95 "Hg10 mi
5:50 AM55 °FClear.5 mph77%29.92 "Hg10 mi
5:20 AM57 °FClear.5 mph72%29.92 "Hg10 mi
4:50 AM55 °FClear.5 mph77%29.92 "Hg10 mi
4:20 AM55 °FClear.2 mph82%29.92 "Hg10 mi
3:50 AM57 °FClear.3 mph72%29.92 "Hg10 mi
3:20 AM55 °FPassing clouds.3 mph77%29.92 "HgN/A
2:50 AM59 °FPassing clouds.3 mph63%29.92 "HgN/A
2:20 AM59 °FClear.5 mph63%29.92 "Hg10 mi
1:50 AM59 °FClear.7 mph68%29.92 "Hg10 mi
1:20 AM61 °FClear.3 mph63%29.92 "Hg10 mi
Weather by CustomWeather, © 2015

See weather overviewHow to use our weather pages